Hourly Data Report for May 20, 2022

FISHER BRANCH (AUT)
MANITOBA
Current Station Operator: ECCC - MSC

51°05'00.100" N
97°33'16.200" W
253.00 m
50309J6
71442
WSZ

Download Data

Hourly Data (May 2022)
Hourly Data Report for May 20, 2022
TIME
LST
Temp Definition
°C
Dew Point Definition
°C
Rel Hum Definition
%
Precip. Amount Definition
mm

Wind Dir Definition
10's deg

Wind Spd Definition
km/h
Visibility Definition
km
Stn Press Definition
kPa
Hmdx Definition


Wind Chill Definition


Weather Definition


00:00 7.9 1.2 63 0.0 4 20   96.56     LegendNANA
01:00 6.7 2.2 73 0.0 3 15   96.55     LegendNANA
02:00 5.7 0.9 71 0.0 1 20   96.57     LegendNANA
03:00 3.2 0.4 82 0.2 1 20   96.61     LegendNANA
04:00 2.6 -1.5 74 0.0 36 27   96.67     LegendNANA
05:00 2.2 -2.2 72 0.0 36 25   96.80     LegendNANA
06:00 2.0 -2.8 71 0.0 35 28   96.86     LegendNANA
07:00 2.4 -2.6 70 0.0 36 29   96.94     LegendNANA
08:00 2.7 -2.5 68 0.0 36 31   97.05     LegendNANA
09:00 2.4 -2.5 70 0.0 35 29   97.14     LegendNANA
10:00 2.6 -2.8 67 0.0 35 28   97.20     LegendNANA
11:00 2.9 -2.5 68 0.0 35 28   97.29     LegendNANA
12:00 3.3 -1.6 70 0.0 34 31   97.41     LegendNANA
13:00 4.1 -3.3 59 0.0 35 29   97.49     LegendNANA
14:00 3.9 -3.4 59 0.0 35 32   97.57     LegendNANA
15:00 3.9 -3.3 59 0.0 34 29   97.67     LegendNANA
16:00 3.9 -3.4 59 0.0 34 24   97.75     LegendNANA
17:00 3.5 -3.4 60 0.0 35 26   97.86     LegendNANA
18:00 2.8 -3.1 65 0.0 34 23   97.97     LegendNANA
19:00 2.7 -3.2 65 0.0 35 22   98.06     LegendNANA
20:00 2.5 -3.7 64 0.0 34 19   98.13     LegendNANA
21:00 2.3 -3.4 66 0.0 33 18   98.24     LegendNANA
22:00 2.1 -3.0 69 0.0 33 14   98.32     LegendNANA
23:00 2.0 -2.9 70 0.0 32 11   98.40     LegendNANA

Notes on Data Quality.

Legend

  • E = Estimated
  • M = Missing
  • NA = Not Available*
  • [empty] = Indicates an unobserved value
Date modified: